Home > Weather > Tianjin > Past weeks

Flag for China Past Weather in Tianjin, Tianjin Municipality, China — Yesterday and Last 2 Weeks

Now
93 °F

Clear.


Feels Like: 91 °F
Forecast: 66 / 83 °F
Wind: 8 mph from West

Location: Tianjin / Zhangguizhu

Current Time: May 30, 2016 at 2:54:29 PM

Latest Report: May 30, 2016 at 2:30 PM


Visibility: 5 mi

Pressure: 29.56 "Hg

Humidity: 28%

Dew Point: 55 °F

Location of TianjinLocation

Past Weather in Tianjin — Graph

°F

Tianjin Temperature Yesterday

Maximum temperature yesterday: 84 °F (at 11:30 AM)
Minimum temperature yesterday: 66 °F (at 1:00 AM)
Average temperature yesterday: 73 °F

High & Low Weather Summary for the Past Weeks

 TemperatureHumidityPressure
High91 °F (May 30, 2:00 PM)94% (May 23, 11:00 PM)30.12 "Hg (May 23, 11:00 PM)
Low57 °F (May 15, 10:00 PM)11% (May 16, 4:00 PM)29.53 "Hg (May 24, 4:00 PM)
Average73 °F41%29.84 "Hg
* Reported May 15 2:00 PM — May 30 2:00 PM, Tianjin, Weather by CustomWeather, © 2016

Note: Actual official high and low records may vary slightly from our data, if they occured in-between our weather recording intervals... More about our weather records

Advertising

Tianjin Weather History for the Previous 24 Hours

Scroll right to see more
 ConditionsComfort  
Time TempWeatherWind HumidityBarometerVisibility
2:00 PM
Mon, May 30
91 °FClear.10 mph30%29.59 "Hg5 mi
1:00 PM90 °FClear.8 mph33%29.59 "Hg5 mi
12:30 PM88 °FHaze.8 mph35%29.62 "Hg3 mi
12:00 PM88 °FHaze.10 mph35%29.62 "Hg3 mi
11:30 AM84 °FHaze.10 mph43%29.62 "Hg3 mi
11:00 AM84 °FHaze.8 mph43%29.65 "Hg3 mi
10:30 AM82 °FHaze.10 mph45%29.65 "Hg3 mi
10:00 AM81 °FHaze.13 mph48%29.65 "Hg2 mi
9:30 AM79 °FHaze.13 mph51%29.65 "Hg2 mi
9:00 AM79 °FHaze.13 mph51%29.65 "Hg2 mi
8:30 AM77 °FHaze.13 mph54%29.68 "Hg2 mi
8:00 AM75 °FHaze.10 mph57%29.68 "Hg2 mi
7:30 AM75 °FHaze.10 mph57%29.68 "Hg2 mi
7:00 AM72 °FHaze.8 mph65%29.68 "Hg1 mi
6:30 AM70 °FHaze.6 mph69%29.68 "Hg1 mi
6:00 AM68 °FHaze.6 mph69%29.68 "Hg1 mi
5:30 AM68 °FHaze.6 mph69%29.68 "Hg1 mi
5:00 AM66 °FHaze.3 mph68%29.68 "Hg2 mi
4:30 AM68 °FHaze.3 mph64%29.68 "Hg2 mi
4:00 AM66 °FHaze.3 mph68%29.68 "Hg2 mi
3:30 AM66 °FHaze.3 mph64%29.68 "Hg3 mi
3:00 AM68 °FHaze.3 mph60%29.68 "Hg3 mi
2:30 AM68 °FHaze.3 mph60%29.68 "Hg3 mi
2:00 AM68 °FClear.6 mph56%29.68 "Hg4 mi
1:30 AM68 °FClear.6 mph53%29.68 "Hg5 mi
1:00 AM70 °FClear.6 mph50%29.68 "Hg10 mi
12:30 AM70 °FClear.8 mph50%29.68 "Hg10 mi
12:00 AM70 °FClear.6 mph53%29.68 "Hg10 mi
11:30 PM
Sun, May 29
70 °FClear.6 mph53%29.71 "Hg10 mi
11:00 PM66 °FClear.3 mph60%29.71 "Hg10 mi
10:30 PM68 °FClear.3 mph56%29.71 "Hg10 mi
10:00 PM66 °FClear.3 mph56%29.71 "Hg10 mi
9:30 PM68 °FClear.3 mph49%29.71 "Hg10 mi
9:00 PM66 °FClear.6 mph52%29.71 "Hg10 mi
8:30 PM68 °FClear.8 mph46%29.71 "Hg10 mi
8:00 PM68 °FClear.8 mph46%29.71 "Hg10 mi
7:30 PM68 °FClear.8 mph43%29.71 "Hg10 mi
7:00 PM72 °FSunny.10 mph36%29.71 "Hg10 mi
6:30 PM73 °FSunny.13 mph31%29.71 "Hg10 mi
6:00 PM75 °FSunny.13 mph29%29.71 "Hg10 mi
5:30 PM75 °FSunny.15 mph29%29.71 "Hg10 mi
5:00 PM75 °FSunny.15 mph27%29.71 "Hg10 mi
4:30 PM77 °FSunny.15 mph26%29.71 "Hg10 mi
4:00 PM77 °FSunny.17 mph22%29.71 "Hg10 mi
3:30 PM77 °FSunny.17 mph22%29.71 "Hg10 mi
3:00 PM79 °FSunny.17 mph24%29.74 "Hg10 mi
2:30 PM79 °FSunny.20 mph24%29.74 "Hg10 mi
2:00 PM79 °FSunny.20 mph24%29.74 "Hg10 mi
Weather by CustomWeather, © 2016

See weather overviewHow to use our weather pages